This is the latest recevied weather packets stored in our database for station/object NR0A-4. If no packets are shown the sender has not sent any weather packets the latest 10 day(s).
| Time | Temp. | Humidity | Pressure | Rain* | Wind** | Luminosity | Snow |
|---|---|---|---|---|---|---|---|
| 1777598104 | 10.56° C | 43% | 1017.8 hPa | 0 mm | - | 11 W/m² | - |
| 1777597804 | 10.56° C | 42% | 1017.9 hPa | 0 mm | - | 12 W/m² | - |
| 1777597504 | 11.11° C | 41% | 1017.9 hPa | 0 mm | - | 16 W/m² | - |
| 1777597204 | 11.11° C | 40% | 1017.9 hPa | 0 mm | - | 19 W/m² | - |
| 1777596904 | 11.11° C | 40% | 1017.9 hPa | 0 mm | - | 23 W/m² | - |
| 1777596605 | 11.11° C | 39% | 1017.9 hPa | 0 mm | - | 26 W/m² | - |
| 1777596304 | 11.67° C | 38% | 1017.8 hPa | 0 mm | - | 25 W/m² | - |
| 1777596004 | 11.67° C | 38% | 1017.9 hPa | 0 mm | - | 28 W/m² | - |
| 1777595704 | 11.67° C | 37% | 1017.9 hPa | 0 mm | - | 30 W/m² | - |
| 1777595404 | 11.67° C | 36% | 1017.8 hPa | 0 mm | - | 32 W/m² | - |
| 1777595104 | 12.22° C | 36% | 1017.9 hPa | 0 mm | - | 33 W/m² | - |
| 1777594804 | 12.22° C | 36% | 1017.9 hPa | 0 mm | - | 35 W/m² | - |
| 1777594504 | 12.22° C | 35% | 1017.8 hPa | 0 mm | - | 37 W/m² | - |
| 1777594204 | 12.78° C | 36% | 1017.9 hPa | 0 mm | - | 37 W/m² | - |
| 1777593905 | 12.78° C | 36% | 1017.9 hPa | 0 mm | - | 174 W/m² | - |
| 1777593604 | 12.78° C | 36% | 1017.9 hPa | 0 mm | - | 190 W/m² | - |
| 1777593304 | 12.78° C | 35% | 1018 hPa | 0 mm | - | 211 W/m² | - |
| 1777593004 | 12.78° C | 36% | 1018.1 hPa | 0 mm | - | 236 W/m² | - |
| 1777592704 | 12.78° C | 36% | 1018.1 hPa | 0 mm | - | 199 W/m² | - |
| 1777592404 | 12.78° C | 37% | 1018.2 hPa | 0 mm | - | 46 W/m² | - |
| 1777592105 | 12.22° C | 37% | 1018.2 hPa | 0 mm | - | 46 W/m² | - |
| 1777591804 | 12.22° C | 37% | 1018.2 hPa | 0 mm | - | 49 W/m² | - |
| 1777591505 | 12.22° C | 41% | 1018.2 hPa | 0 mm | - | 69 W/m² | - |
| 1777591204 | 12.78° C | 37% | 1018.2 hPa | 0 mm | - | 350 W/m² | - |
| 1777590904 | 12.78° C | 37% | 1018.2 hPa | 0 mm | - | 366 W/m² | - |
* Rain latest hour (hover to see other rain measurements)
** Current wind speed in m/s (hover to see current wind gust speed)